| time (UTC) | temp C | wind direction | speed KPH | gust KPH | rain 1hr cm | rain 24hr cm | rain mn cm | humidity % | barometer mb |
| 20260508102603 | 11 | 185 | 0.0 | 0.0 | 0.00 | 0.00 | 0.00 | 46 | 1013.3 |
| 20260508101104 | 11 | 219 | 0.0 | 4.8 | 0.00 | 0.00 | 0.00 | 44 | 1013.3 |
| 20260508100603 | 12 | 174 | 0.0 | 3.2 | 0.00 | 0.00 | 0.00 | 43 | 1013.4 |
| 20260508100103 | 12 | 174 | 0.0 | 4.8 | 0.00 | 0.00 | 0.00 | 43 | 1013.4 |
| 20260508095105 | 11 | 202 | 0.0 | 19.3 | 0.00 | 0.00 | 0.00 | 43 | 1013.3 |
| 20260508094603 | 11 | 139 | 1.6 | 4.8 | 0.00 | 0.00 | 0.00 | 43 | 1013.3 |
| 20260508094103 | 11 | 154 | 0.0 | 4.8 | 0.00 | 0.00 | 0.00 | 42 | 1013.2 |
| 20260508093603 | 11 | 234 | 1.6 | 4.8 | 0.00 | 0.00 | 0.00 | 42 | 1013.3 |
| 20260508092604 | 11 | 226 | 0.0 | 0.0 | 0.00 | 0.00 | 0.00 | 41 | 1013.2 |
| 20260508091604 | 11 | 226 | 0.0 | 0.0 | 0.00 | 0.00 | 0.00 | 40 | 1013.3 |
| 20260508091103 | 12 | 225 | 0.0 | 3.2 | 0.00 | 0.00 | 0.00 | 40 | 1013.4 |
| 20260508090603 | 12 | 202 | 0.0 | 1.6 | 0.00 | 0.00 | 0.00 | 39 | 1013.4 |
| 20260508090103 | 12 | 160 | 0.0 | 0.0 | 0.00 | 0.00 | 0.00 | 38 | 1013.4 |
| 20260508085603 | 12 | 160 | 0.0 | 1.6 | 0.00 | 0.00 | 0.00 | 38 | 1013.4 |
| 20260508085103 | 12 | 128 | 0.0 | 3.2 | 0.00 | 0.00 | 0.00 | 37 | 1013.4 |
| 20260508084603 | 12 | 190 | 0.0 | 1.6 | 0.00 | 0.00 | 0.00 | 37 | 1013.4 |
| 20260508084103 | 12 | 223 | 0.0 | 0.0 | 0.00 | 0.00 | 0.00 | 36 | 1013.3 |
| 20260508083603 | 12 | 209 | 0.0 | 3.2 | 0.00 | 0.00 | 0.00 | 36 | 1013.3 |
| 20260508083103 | 13 | 214 | 0.0 | 8.0 | 0.00 | 0.00 | 0.00 | 35 | 1013.2 |
| 20260508082103 | 13 | 191 | 0.0 | 1.6 | 0.00 | 0.00 | 0.00 | 35 | 1013.3 |
| 20260508081603 | 13 | 148 | 0.0 | 3.2 | 0.00 | 0.00 | 0.00 | 35 | 1013.4 |
| 20260508081103 | 13 | 192 | 0.0 | 0.0 | 0.00 | 0.00 | 0.00 | 35 | 1013.3 |
| 20260508080603 | 13 | 191 | 0.0 | 1.6 | 0.00 | 0.00 | 0.00 | 36 | 1013.4 |
| 20260508080104 | 13 | 222 | 1.6 | 4.8 | 0.00 | 0.00 | 0.00 | 35 | 1013.4 |
| 20260508075603 | 13 | 210 | 0.0 | 3.2 | 0.00 | 0.00 | 0.00 | 35 | 1013.3 |
| 20260508075104 | 13 | 180 | 0.0 | 3.2 | 0.00 | 0.00 | 0.00 | 35 | 1013.3 |
| 20260508074603 | 13 | 163 | 0.0 | 0.0 | 0.00 | 0.00 | 0.00 | 35 | 1013.4 |
| 20260508074103 | 13 | 163 | 0.0 | 0.0 | 0.00 | 0.00 | 0.00 | 35 | 1013.4 |
| 20260508073604 | 13 | 153 | 0.0 | 0.0 | 0.00 | 0.00 | 0.00 | 36 | 1013.4 |
| 20260508073103 | 13 | 155 | 0.0 | 3.2 | 0.00 | 0.00 | 0.00 | 35 | 1013.4 |
| 20260508072603 | 13 | 178 | 0.0 | 0.0 | 0.00 | 0.00 | 0.00 | 35 | 1013.2 |
| 20260508072103 | 13 | 186 | 0.0 | 0.0 | 0.00 | 0.00 | 0.00 | 35 | 1013.3 |
| 20260508071603 | 13 | 196 | 0.0 | 3.2 | 0.00 | 0.00 | 0.00 | 35 | 1013.4 |
| 20260508071103 | 13 | 191 | 0.0 | 1.6 | 0.00 | 0.00 | 0.00 | 34 | 1013.3 |
| 20260508070603 | 13 | 170 | 0.0 | 1.6 | 0.00 | 0.00 | 0.00 | 34 | 1013.3 |
| 20260508070104 | 13 | 202 | 0.0 | 1.6 | 0.00 | 0.00 | 0.00 | 33 | 1013.2 |
| 20260508065604 | 13 | 215 | 1.6 | 4.8 | 0.00 | 0.00 | 0.00 | 33 | 1013.2 |
| 20260508065103 | 13 | 237 | 0.0 | 1.6 | 0.00 | 0.00 | 0.00 | 33 | 1013.2 |
| 20260508064604 | 13 | 190 | 0.0 | 0.0 | 0.00 | 0.00 | 0.00 | 32 | 1013.2 |
| 20260508064103 | 13 | 189 | 0.0 | 0.0 | 0.00 | 0.00 | 0.00 | 32 | 1013.3 |
| 20260508063603 | 13 | 190 | 0.0 | 3.2 | 0.00 | 0.00 | 0.00 | 31 | 1013.3 |
| 20260508063103 | 13 | 207 | 0.0 | 1.6 | 0.00 | 0.00 | 0.00 | 30 | 1013.3 |
| 20260508062603 | 13 | 214 | 0.0 | 3.2 | 0.00 | 0.00 | 0.00 | 29 | 1013.4 |
| 20260508062103 | 14 | 225 | 0.0 | 4.8 | 0.00 | 0.00 | 0.00 | 29 | 1013.4 |
| 20260508060603 | 14 | 227 | 0.0 | 4.8 | 0.00 | 0.00 | 0.00 | 29 | 1013.3 |
| 20260508060103 | 14 | 154 | 0.0 | 3.2 | 0.00 | 0.00 | 0.00 | 29 | 1013.3 |
| 20260508055104 | 14 | 161 | 0.0 | 0.0 | 0.00 | 0.00 | 0.00 | 28 | 1013.2 |
| 20260508054603 | 14 | 162 | 0.0 | 1.6 | 0.00 | 0.00 | 0.00 | 28 | 1013.2 |
| 20260508054103 | 15 | 179 | 0.0 | 0.0 | 0.00 | 0.00 | 0.00 | 28 | 1013.3 |
| 20260508053604 | 15 | 173 | 0.0 | 0.0 | 0.00 | 0.00 | 0.00 | 28 | 1013.3 |
| 20260508053103 | 15 | 159 | 0.0 | 0.0 | 0.00 | 0.00 | 0.00 | 28 | 1013.2 |
| 20260508052603 | 15 | 156 | 0.0 | 4.8 | 0.00 | 0.00 | 0.00 | 28 | 1013.2 |
| 20260508052103 | 15 | 173 | 0.0 | 3.2 | 0.00 | 0.00 | 0.00 | 28 | 1013.1 |
| 20260508051603 | 15 | 178 | 0.0 | 1.6 | 0.00 | 0.00 | 0.00 | 28 | 1013.1 |
| 20260508051104 | 15 | 197 | 0.0 | 1.6 | 0.00 | 0.00 | 0.00 | 28 | 1013.0 |
| 20260508050104 | 15 | 204 | 0.0 | 0.0 | 0.00 | 0.00 | 0.00 | 28 | 1013.1 |
| 20260508045604 | 16 | 206 | 0.0 | 0.0 | 0.00 | 0.00 | 0.00 | 29 | 1013.1 |
| 20260508045103 | 16 | 206 | 0.0 | 0.0 | 0.00 | 0.00 | 0.00 | 28 | 1013.1 |
| 20260508044603 | 16 | 206 | 0.0 | 0.0 | 0.00 | 0.00 | 0.00 | 28 | 1013.1 |
| 20260508044104 | 16 | 206 | 0.0 | 0.0 | 0.00 | 0.00 | 0.00 | 28 | 1013.1 |
| 20260508043603 | 16 | 206 | 0.0 | 0.0 | 0.00 | 0.00 | 0.00 | 27 | 1013.2 |
| 20260508043104 | 16 | 207 | 0.0 | 0.0 | 0.00 | 0.00 | 0.00 | 27 | 1013.1 |
| 20260508042605 | 16 | 207 | 0.0 | 0.0 | 0.00 | 0.00 | 0.00 | 27 | 1013.0 |
| 20260508042103 | 16 | 207 | 0.0 | 0.0 | 0.00 | 0.00 | 0.00 | 26 | 1012.9 |
| 20260508041603 | 16 | 209 | 0.0 | 0.0 | 0.00 | 0.00 | 0.00 | 26 | 1012.8 |
| 20260508040603 | 17 | 212 | 0.0 | 0.0 | 0.00 | 0.00 | 0.00 | 26 | 1012.7 |
| 20260508040104 | 17 | 212 | 0.0 | 0.0 | 0.00 | 0.00 | 0.00 | 26 | 1012.7 |
| 20260508035603 | 17 | 246 | 0.0 | 0.0 | 0.00 | 0.00 | 0.00 | 25 | 1012.6 |
| 20260508035103 | 17 | 246 | 0.0 | 0.0 | 0.00 | 0.00 | 0.00 | 25 | 1012.5 |
| 20260508034603 | 17 | 246 | 0.0 | 0.0 | 0.00 | 0.00 | 0.00 | 25 | 1012.5 |
| 20260508034103 | 18 | 246 | 0.0 | 3.2 | 0.00 | 0.00 | 0.00 | 25 | 1012.4 |
| 20260508033603 | 18 | 218 | 0.0 | 0.0 | 0.00 | 0.00 | 0.00 | 25 | 1012.5 |
| 20260508033103 | 18 | 218 | 0.0 | 0.0 | 0.00 | 0.00 | 0.00 | 25 | 1012.4 |
| 20260508032603 | 18 | 218 | 0.0 | 0.0 | 0.00 | 0.00 | 0.00 | 24 | 1012.4 |
| 20260508032104 | 18 | 218 | 0.0 | 0.0 | 0.00 | 0.00 | 0.00 | 23 | 1012.3 |
| 20260508031604 | 18 | 219 | 0.0 | 0.0 | 0.00 | 0.00 | 0.00 | 23 | 1012.2 |
| 20260508031103 | 18 | 220 | 0.0 | 3.2 | 0.00 | 0.00 | 0.00 | 22 | 1012.2 |
| 20260508030604 | 19 | 226 | 0.0 | 4.8 | 0.00 | 0.00 | 0.00 | 22 | 1012.1 |
| 20260508030104 | 19 | 167 | 0.0 | 4.8 | 0.00 | 0.00 | 0.00 | 22 | 1012.1 |
| 20260508025604 | 20 | 245 | 1.6 | 14.5 | 0.00 | 0.00 | 0.00 | 21 | 1012.0 |
| 20260508025103 | 20 | 252 | 0.0 | 4.8 | 0.00 | 0.00 | 0.00 | 22 | 1012.1 |
| 20260508024603 | 20 | 261 | 0.0 | 1.6 | 0.00 | 0.00 | 0.00 | 21 | 1011.9 |
| 20260508024104 | 20 | 222 | 0.0 | 4.8 | 0.00 | 0.00 | 0.00 | 22 | 1011.9 |
| 20260508023603 | 20 | 251 | 0.0 | 1.6 | 0.00 | 0.00 | 0.00 | 22 | 1012.0 |
| 20260508022603 | 21 | 220 | 0.0 | 0.0 | 0.00 | 0.00 | 0.00 | 24 | 1012.0 |
| 20260508022104 | 21 | 263 | 0.0 | 0.0 | 0.00 | 0.00 | 0.00 | 24 | 1011.8 |
| 20260508021603 | 21 | 245 | 0.0 | 0.0 | 0.00 | 0.00 | 0.00 | 24 | 1011.8 |
| 20260508021104 | 21 | 245 | 0.0 | 1.6 | 0.00 | 0.00 | 0.00 | 23 | 1011.8 |
| 20260508020603 | 21 | 237 | 0.0 | 3.2 | 0.00 | 0.00 | 0.00 | 23 | 1011.8 |
| 20260508015603 | 22 | 226 | 0.0 | 4.8 | 0.00 | 0.00 | 0.00 | 22 | 1011.9 |
| 20260508015104 | 22 | 224 | 0.0 | 4.8 | 0.00 | 0.00 | 0.00 | 22 | 1011.9 |
| 20260508014603 | 22 | 337 | 0.0 | 3.2 | 0.00 | 0.00 | 0.00 | 22 | 1012.0 |
| 20260508014103 | 22 | 137 | 0.0 | 4.8 | 0.00 | 0.00 | 0.00 | 21 | 1011.9 |
| 20260508013603 | 23 | 216 | 1.6 | 4.8 | 0.00 | 0.00 | 0.00 | 22 | 1011.8 |
| 20260508013103 | 23 | 260 | 0.0 | 4.8 | 0.00 | 0.00 | 0.00 | 23 | 1011.8 |
| 20260508012603 | 23 | 206 | 1.6 | 9.7 | 0.00 | 0.00 | 0.00 | 22 | 1011.8 |
| 20260508012103 | 23 | 226 | 1.6 | 11.3 | 0.00 | 0.00 | 0.00 | 23 | 1011.8 |
| 20260508011604 | 23 | 239 | 1.6 | 8.0 | 0.00 | 0.00 | 0.00 | 23 | 1011.7 |
| 20260508011103 | 23 | 300 | 0.0 | 4.8 | 0.00 | 0.00 | 0.00 | 24 | 1011.8 |
| 20260508010603 | 23 | 249 | 1.6 | 11.3 | 0.00 | 0.00 | 0.00 | 24 | 1011.7 |
| 20260508005603 | 24 | 229 | 3.2 | 11.3 | 0.00 | 0.00 | 0.00 | 24 | 1011.7 |
| 20260508004603 | 24 | 230 | 3.2 | 12.9 | 0.00 | 0.00 | 0.00 | 24 | 1011.8 |
| 20260508003604 | 25 | 252 | 1.6 | 12.9 | 0.00 | 0.00 | 0.00 | 23 | 1011.7 |
| 20260508003103 | 25 | 183 | 0.0 | 16.1 | 0.00 | 0.00 | 0.00 | 23 | 1011.7 |
| 20260508001603 | 24 | 257 | 1.6 | 12.9 | 0.00 | 0.00 | 0.00 | 24 | 1011.6 |
| 20260508001104 | 25 | 190 | 3.2 | 20.9 | 0.00 | 0.00 | 0.00 | 24 | 1011.6 |
| 20260508000604 | 25 | 270 | 3.2 | 16.1 | 0.00 | 0.00 | 0.00 | 24 | 1011.4 |
| 20260507235603 | 26 | 200 | 1.6 | 25.7 | 0.00 | 0.00 | 0.00 | 23 | 1011.3 |
| 20260507235103 | 26 | 226 | 0.0 | 12.9 | 0.00 | 0.00 | 0.00 | 22 | 1011.2 |
| 20260507234104 | 26 | 238 | 1.6 | 4.8 | 0.00 | 0.00 | 0.00 | 21 | 1011.3 |
| 20260507233603 | 26 | 235 | 1.6 | 12.9 | 0.00 | 0.00 | 0.00 | 20 | 1011.3 |
| 20260507233103 | 26 | 234 | 1.6 | 12.9 | 0.00 | 0.00 | 0.00 | 19 | 1011.3 |
| 20260507232603 | 26 | 145 | 0.0 | 4.8 | 0.00 | 0.00 | 0.00 | 19 | 1011.2 |
| 20260507232103 | 26 | 209 | 1.6 | 4.8 | 0.00 | 0.00 | 0.00 | 19 | 1011.3 |
| 20260507231603 | 26 | 243 | 1.6 | 4.8 | 0.00 | 0.00 | 0.00 | 19 | 1011.3 |
| 20260507231103 | 26 | 255 | 1.6 | 4.8 | 0.00 | 0.00 | 0.00 | 19 | 1011.2 |
| 20260507230603 | 26 | 338 | 0.0 | 0.0 | 0.00 | 0.00 | 0.00 | 21 | 1011.2 |
| 20260507230104 | 25 | 329 | 0.0 | 3.2 | 0.00 | 0.00 | 0.00 | 21 | 1011.4 |
| 20260507225604 | 25 | 61 | 1.6 | 4.8 | 0.00 | 0.00 | 0.00 | 20 | 1011.4 |
| 20260507225103 | 25 | 331 | 1.6 | 3.2 | 0.00 | 0.00 | 0.00 | 21 | 1011.4 |
| 20260507224604 | 25 | 336 | 0.0 | 8.0 | 0.00 | 0.00 | 0.00 | 21 | 1011.6 |
| 20260507224103 | 25 | 313 | 1.6 | 8.0 | 0.00 | 0.00 | 0.00 | 21 | 1011.5 |
| 20260507223603 | 25 | 307 | 1.6 | 14.5 | 0.00 | 0.00 | 0.00 | 21 | 1011.6 |
| 20260507223103 | 25 | 331 | 1.6 | 4.8 | 0.00 | 0.00 | 0.00 | 21 | 1011.5 |
| 20260507222604 | 25 | 325 | 3.2 | 4.8 | 0.00 | 0.00 | 0.00 | 21 | 1011.6 |
| 20260507222104 | 25 | 229 | 0.0 | 4.8 | 0.00 | 0.00 | 0.00 | 21 | 1011.6 |
| 20260507221604 | 25 | 332 | 3.2 | 9.7 | 0.00 | 0.00 | 0.00 | 20 | 1011.7 |
| 20260507221103 | 25 | 280 | 0.0 | 8.0 | 0.00 | 0.00 | 0.00 | 20 | 1011.8 |
| 20260507220603 | 25 | 320 | 4.8 | 14.5 | 0.00 | 0.00 | 0.00 | 20 | 1011.8 |
| 20260507215104 | 26 | 323 | 3.2 | 14.5 | 0.00 | 0.00 | 0.00 | 20 | 1011.7 |
| 20260507214604 | 26 | 172 | 1.6 | 4.8 | 0.00 | 0.00 | 0.00 | 20 | 1011.8 |
| 20260507214104 | 25 | 327 | 1.6 | 4.8 | 0.00 | 0.00 | 0.00 | 21 | 1011.8 |
| 20260507213604 | 25 | 345 | 3.2 | 14.5 | 0.00 | 0.00 | 0.00 | 21 | 1011.8 |
| 20260507213104 | 25 | 326 | 0.0 | 8.0 | 0.00 | 0.00 | 0.00 | 22 | 1011.6 |
| 20260507211603 | 26 | 321 | 3.2 | 4.8 | 0.00 | 0.00 | 0.00 | 21 | 1012.0 |
| 20260507211104 | 26 | 330 | 1.6 | 4.8 | 0.00 | 0.00 | 0.00 | 22 | 1012.2 |
| 20260507210603 | 26 | 301 | 1.6 | 4.8 | 0.00 | 0.00 | 0.00 | 22 | 1012.2 |
| 20260507210104 | 26 | 250 | 0.0 | 3.2 | 0.00 | 0.00 | 0.00 | 21 | 1012.2 |
| 20260507205603 | 26 | 249 | 1.6 | 8.0 | 0.00 | 0.00 | 0.00 | 21 | 1012.2 |
| 20260507205103 | 26 | 294 | 0.0 | 3.2 | 0.00 | 0.00 | 0.00 | 22 | 1012.3 |
| 20260507204104 | 25 | 287 | 0.0 | 1.6 | 0.00 | 0.00 | 0.00 | 22 | 1012.5 |
| 20260507202604 | 24 | 341 | 1.6 | 3.2 | 0.00 | 0.00 | 0.00 | 24 | 1012.7 |
| 20260507202103 | 24 | 322 | 1.6 | 4.8 | 0.00 | 0.00 | 0.00 | 25 | 1012.6 |
| 20260507201603 | 23 | 276 | 0.0 | 4.8 | 0.00 | 0.00 | 0.00 | 25 | 1012.6 |
| 20260507201103 | 23 | 324 | 0.0 | 4.8 | 0.00 | 0.00 | 0.00 | 25 | 1012.7 |
| 20260507200603 | 23 | 325 | 3.2 | 9.7 | 0.00 | 0.00 | 0.00 | 26 | 1012.7 |
| 20260507200104 | 23 | 327 | 4.8 | 16.1 | 0.00 | 0.00 | 0.00 | 25 | 1012.7 |
| 20260507195604 | 23 | 324 | 1.6 | 12.9 | 0.00 | 0.00 | 0.00 | 25 | 1012.8 |
| 20260507195104 | 23 | 324 | 4.8 | 16.1 | 0.00 | 0.00 | 0.00 | 26 | 1012.8 |
| 20260507194603 | 23 | 305 | 3.2 | 8.0 | 0.00 | 0.00 | 0.00 | 26 | 1012.8 |
| 20260507194104 | 23 | 325 | 1.6 | 11.3 | 0.00 | 0.00 | 0.00 | 26 | 1013.0 |
| 20260507193604 | 23 | 326 | 4.8 | 14.5 | 0.00 | 0.00 | 0.00 | 27 | 1012.9 |
| 20260507192604 | 23 | 333 | 3.2 | 9.7 | 0.00 | 0.00 | 0.00 | 24 | 1013.0 |
| 20260507192103 | 24 | 325 | 1.6 | 4.8 | 0.00 | 0.00 | 0.00 | 24 | 1013.0 |
| 20260507191603 | 23 | 319 | 1.6 | 8.0 | 0.00 | 0.00 | 0.00 | 25 | 1013.1 |
| 20260507191103 | 23 | 67 | 0.0 | 1.6 | 0.00 | 0.00 | 0.00 | 26 | 1013.2 |
| 20260507190603 | 23 | 71 | 0.0 | 3.2 | 0.00 | 0.00 | 0.00 | 25 | 1013.3 |
| 20260507190104 | 23 | 92 | 1.6 | 8.0 | 0.00 | 0.00 | 0.00 | 25 | 1013.2 |
| 20260507185603 | 23 | 312 | 1.6 | 4.8 | 0.00 | 0.00 | 0.00 | 25 | 1013.2 |
| 20260507185103 | 23 | 210 | 1.6 | 12.9 | 0.00 | 0.00 | 0.00 | 26 | 1013.2 |
| 20260507184603 | 23 | 328 | 3.2 | 14.5 | 0.00 | 0.00 | 0.00 | 25 | 1013.1 |
| 20260507183604 | 23 | 216 | 1.6 | 12.9 | 0.00 | 0.00 | 0.00 | 24 | 1013.1 |
| 20260507183103 | 23 | 42 | 0.0 | 4.8 | 0.00 | 0.00 | 0.00 | 22 | 1013.1 |
| 20260507182604 | 23 | 102 | 0.0 | 4.8 | 0.00 | 0.00 | 0.00 | 23 | 1013.3 |
| 20260507182103 | 23 | 57 | 1.6 | 8.0 | 0.00 | 0.00 | 0.00 | 22 | 1013.3 |
| 20260507181103 | 22 | 93 | 0.0 | 0.0 | 0.00 | 0.00 | 0.00 | 23 | 1013.5 |
| 20260507180603 | 22 | 83 | 0.0 | 4.8 | 0.00 | 0.00 | 0.00 | 24 | 1013.6 |
| 20260507175604 | 22 | 86 | 0.0 | 4.8 | 0.00 | 0.00 | 0.00 | 26 | 1013.7 |
| 20260507175104 | 22 | 206 | 0.0 | 4.8 | 0.00 | 0.00 | 0.00 | 27 | 1013.8 |
| 20260507174103 | 21 | 162 | 0.0 | 1.6 | 0.00 | 0.00 | 0.00 | 28 | 1013.8 |
| 20260507173603 | 21 | 163 | 0.0 | 4.8 | 0.00 | 0.00 | 0.00 | 28 | 1013.9 |
| 20260507173104 | 21 | 151 | 0.0 | 4.8 | 0.00 | 0.00 | 0.00 | 29 | 1014.1 |
| 20260507172604 | 21 | 98 | 1.6 | 8.0 | 0.00 | 0.00 | 0.00 | 28 | 1014.2 |
| 20260507172103 | 20 | 83 | 0.0 | 0.0 | 0.00 | 0.00 | 0.00 | 29 | 1014.2 |
| 20260507171603 | 20 | 77 | 0.0 | 4.8 | 0.00 | 0.00 | 0.00 | 31 | 1014.2 |
| 20260507171104 | 20 | 355 | 0.0 | 3.2 | 0.00 | 0.00 | 0.00 | 33 | 1014.3 |
| 20260507170604 | 19 | 268 | 0.0 | 0.0 | 0.00 | 0.00 | 0.00 | 34 | 1014.3 |
| 20260507170104 | 19 | 269 | 0.0 | 0.0 | 0.00 | 0.00 | 0.00 | 34 | 1014.3 |
| 20260507165603 | 19 | 269 | 0.0 | 0.0 | 0.00 | 0.00 | 0.00 | 34 | 1014.3 |
| 20260507165104 | 19 | 269 | 0.0 | 4.8 | 0.00 | 0.00 | 0.00 | 34 | 1014.3 |
| 20260507164604 | 19 | 336 | 0.0 | 3.2 | 0.00 | 0.00 | 0.00 | 35 | 1014.3 |
| 20260507164104 | 18 | 294 | 0.0 | 4.8 | 0.00 | 0.00 | 0.00 | 36 | 1014.3 |
| 20260507163103 | 18 | 178 | 0.0 | 3.2 | 0.00 | 0.00 | 0.00 | 37 | 1014.3 |
| 20260507162603 | 18 | 159 | 1.6 | 8.0 | 0.00 | 0.00 | 0.00 | 37 | 1014.4 |
| 20260507162104 | 18 | 137 | 0.0 | 1.6 | 0.00 | 0.00 | 0.00 | 38 | 1014.3 |
| 20260507161603 | 17 | 87 | 0.0 | 1.6 | 0.00 | 0.00 | 0.00 | 37 | 1014.3 |
| 20260507160603 | 17 | 143 | 0.0 | 4.8 | 0.00 | 0.00 | 0.00 | 40 | 1014.3 |
| 20260507160104 | 17 | 214 | 0.0 | 4.8 | 0.00 | 0.00 | 0.00 | 40 | 1014.4 |
| 20260507155604 | 17 | 225 | 0.0 | 4.8 | 0.00 | 0.00 | 0.00 | 40 | 1014.3 |
| 20260507155103 | 17 | 246 | 1.6 | 8.0 | 0.00 | 0.00 | 0.00 | 41 | 1014.5 |
| 20260507154603 | 16 | 232 | 1.6 | 4.8 | 0.00 | 0.00 | 0.00 | 41 | 1014.5 |
| 20260507154105 | 16 | 227 | 0.0 | 9.7 | 0.00 | 0.00 | 0.00 | 42 | 1014.4 |
| 20260507153603 | 16 | 257 | 1.6 | 8.0 | 0.00 | 0.00 | 0.00 | 42 | 1014.4 |
| 20260507153103 | 16 | 206 | 0.0 | 1.6 | 0.00 | 0.00 | 0.00 | 43 | 1014.4 |
| 20260507152604 | 16 | 175 | 0.0 | 3.2 | 0.00 | 0.00 | 0.00 | 43 | 1014.4 |
| 20260507152103 | 16 | 236 | 0.0 | 0.0 | 0.00 | 0.00 | 0.00 | 45 | 1014.5 |
| 20260507151603 | 15 | 236 | 0.0 | 0.0 | 0.00 | 0.00 | 0.00 | 46 | 1014.5 |
| 20260507151104 | 15 | 236 | 0.0 | 3.2 | 0.00 | 0.00 | 0.00 | 46 | 1014.5 |
| 20260507150603 | 15 | 238 | 0.0 | 4.8 | 0.00 | 0.00 | 0.00 | 47 | 1014.5 |
| 20260507150103 | 15 | 247 | 1.6 | 4.8 | 0.00 | 0.00 | 0.00 | 46 | 1014.5 |
| 20260507145604 | 15 | 214 | 0.0 | 4.8 | 0.00 | 0.00 | 0.00 | 49 | 1014.4 |
| 20260507145103 | 14 | 224 | 0.0 | 3.2 | 0.00 | 0.00 | 0.00 | 50 | 1014.4 |
| 20260507144603 | 14 | 232 | 0.0 | 3.2 | 0.00 | 0.00 | 0.00 | 50 | 1014.5 |
| 20260507144104 | 13 | 238 | 0.0 | 3.2 | 0.00 | 0.00 | 0.00 | 51 | 1014.5 |
| 20260507143603 | 13 | 238 | 1.6 | 4.8 | 0.00 | 0.00 | 0.00 | 52 | 1014.5 |
| 20260507143103 | 13 | 242 | 1.6 | 9.7 | 0.00 | 0.00 | 0.00 | 55 | 1014.5 |
| 20260507142103 | 12 | 246 | 0.0 | 4.8 | 0.00 | 0.00 | 0.00 | 57 | 1014.3 |
| 20260507141603 | 12 | 246 | 0.0 | 8.0 | 0.00 | 0.00 | 0.00 | 58 | 1014.2 |
| 20260507140603 | 12 | 243 | 1.6 | 4.8 | 0.00 | 0.00 | 0.00 | 58 | 1014.2 |
| 20260507140103 | 12 | 207 | 0.0 | 4.8 | 0.00 | 0.00 | 0.00 | 58 | 1014.2 |
| 20260507135604 | 11 | 215 | 0.0 | 3.2 | 0.00 | 0.00 | 0.00 | 59 | 1014.1 |
| 20260507135103 | 11 | 158 | 0.0 | 0.0 | 0.00 | 0.00 | 0.00 | 59 | 1014.1 |
| 20260507134603 | 11 | 196 | 0.0 | 1.6 | 0.00 | 0.00 | 0.00 | 59 | 1014.0 |
| 20260507134104 | 11 | 205 | 0.0 | 1.6 | 0.00 | 0.00 | 0.00 | 58 | 1014.0 |
| 20260507133603 | 11 | 206 | 0.0 | 3.2 | 0.00 | 0.00 | 0.00 | 58 | 1014.1 |
| 20260507132603 | 11 | 209 | 0.0 | 4.8 | 0.00 | 0.00 | 0.00 | 58 | 1013.8 |
| 20260507132103 | 11 | 169 | 0.0 | 4.8 | 0.00 | 0.00 | 0.00 | 58 | 1013.8 |
| 20260507131103 | 11 | 229 | 0.0 | 4.8 | 0.00 | 0.00 | 0.00 | 58 | 1013.7 |
| 20260507130104 | 11 | 184 | 0.0 | 4.8 | 0.00 | 0.00 | 0.00 | 58 | 1013.8 |
| 20260507125603 | 11 | 173 | 0.0 | 4.8 | 0.00 | 0.00 | 0.00 | 59 | 1013.8 |
| 20260507125104 | 11 | 262 | 0.0 | 1.6 | 0.00 | 0.00 | 0.00 | 60 | 1013.8 |
| 20260507124603 | 11 | 229 | 0.0 | 3.2 | 0.00 | 0.00 | 0.00 | 60 | 1013.9 |
| 20260507124104 | 11 | 225 | 0.0 | 1.6 | 0.00 | 0.00 | 0.00 | 60 | 1013.9 |
| 20260507123604 | 11 | 233 | 0.0 | 4.8 | 0.00 | 0.00 | 0.00 | 60 | 1013.9 |
| 20260507123103 | 11 | 198 | 0.0 | 4.8 | 0.00 | 0.00 | 0.00 | 59 | 1013.9 |
| 20260507122104 | 11 | 185 | 1.6 | 9.7 | 0.00 | 0.00 | 0.00 | 60 | 1014.0 |
| 20260507121103 | 11 | 231 | 0.0 | 1.6 | 0.00 | 0.00 | 0.00 | 61 | 1013.9 |
| 20260507120603 | 11 | 236 | 0.0 | 4.8 | 0.00 | 0.00 | 0.00 | 61 | 1014.0 |
| 20260507120104 | 11 | 193 | 0.0 | 1.6 | 0.00 | 0.00 | 0.00 | 62 | 1014.0 |
| 20260507115604 | 11 | 194 | 0.0 | 0.0 | 0.00 | 0.00 | 0.00 | 63 | 1014.1 |
| 20260507115103 | 11 | 195 | 0.0 | 0.0 | 0.00 | 0.00 | 0.00 | 63 | 1014.0 |
| 20260507114604 | 11 | 195 | 0.0 | 4.8 | 0.00 | 0.00 | 0.00 | 64 | 1014.0 |
| 20260507114104 | 11 | 200 | 0.0 | 1.6 | 0.00 | 0.00 | 0.00 | 64 | 1014.1 |
| 20260507113604 | 11 | 202 | 0.0 | 0.0 | 0.00 | 0.00 | 0.00 | 64 | 1014.1 |
| 20260507113104 | 11 | 202 | 0.0 | 0.0 | 0.00 | 0.00 | 0.00 | 63 | 1014.2 |
| 20260507112604 | 11 | 202 | 0.0 | 3.2 | 0.00 | 0.00 | 0.00 | 63 | 1014.1 |
| 20260507112103 | 11 | 192 | 0.0 | 1.6 | 0.00 | 0.00 | 0.00 | 63 | 1014.1 |
| 20260507111604 | 11 | 227 | 0.0 | 0.0 | 0.00 | 0.00 | 0.00 | 62 | 1014.2 |
| 20260507111103 | 11 | 229 | 0.0 | 0.0 | 0.00 | 0.00 | 0.00 | 62 | 1014.2 |
| 20260507110104 | 11 | 179 | 0.0 | 0.0 | 0.00 | 0.00 | 0.00 | 62 | 1014.1 |
| 20260507105609 | 11 | 180 | 0.0 | 0.0 | 0.00 | 0.00 | 0.00 | 61 | 1014.1 |
| 20260507104604 | 11 | 178 | 0.0 | 0.0 | 0.00 | 0.00 | 0.00 | 61 | 1014.1 |
| 20260507104103 | 12 | 175 | 0.0 | 0.0 | 0.00 | 0.00 | 0.00 | 61 | 1014.0 |
| 20260507103604 | 12 | 174 | 0.0 | 1.6 | 0.00 | 0.00 | 0.00 | 61 | 1014.0 |
| 20260507103103 | 12 | 169 | 0.0 | 0.0 | 0.00 | 0.00 | 0.00 | 61 | 1014.0 |